Погода в Камбрильсе

Испания     41°04′29″N   1°03′17″E
темп.,
°C
ветер,
м/с
пор.,
м/с
влажн.,
%
обл.,
%
осадки,
мм/ч
давл.,
гПа
погр.,
м
18 апреля, вс
вс1823:00+12з57500 0.0 1018948
02:00+9зсз711600 0.0 1018476
05:00+8зсз711642 0.0 1019534
08:00+8сз78670 0.0 1019346
11:00+12зсз77480 0.0 1020724
14:00+16з35400 0.0 1019527
17:00+14ююз98520 0.0 1018800
20:00+13ююз89654 0.0 1019448
19 апреля, пн
пн1923:00+13юз57700 0.0 1020450
02:00+12зюз35720 0.0 1019290
05:00+12ссз22720 0.0 1018124
08:00+11ссз44725 0.0 1018190
11:00+14св236079 0.0 1018784
14:00+14вюв547264 0.0 1017461
17:00+14в557388 0.0 1016399
20:00+14в4482100 0.0 1016403
20 апреля, вт
вт2023:00+14всв5586100 0.0 1017393
02:00+13всв5581100 0.0 1016440
05:00+13всв3378100 0.0 1015314
08:00+13всв3377100 0.0 1015333
11:00+14всв3374100 0.0 1015453
14:00+14вюв3375100 0.0 1015371
17:00+14юв2278100 0.0 1014276
20:00+14вюв118126 0.0 1014170
21 апреля, ср
ср2123:00+14вюв118277 0.0 101577
02:00+14св228332 0.0 1014131
05:00+13св228188 0.0 1014193
08:00+14св2381100 0.3 1014179
11:00+14всв3381100 0.4 1015377
14:00+14в448571 0.6 1015420
17:00+14в558230 0.1 1014542
20:00+14в5683100 0.1 1015585
22 апреля, чт
чт2223:00+14в7884100 0.2 1017718
02:00+13всв7783100 0.3 1017656
05:00+13всв6779100 0.0 1016624
08:00+13всв6679100 0.1 1017620
11:00+13всв567798 0.1 1019660
14:00+14в4475100 0.1 1019507
17:00+14вюв237586 0.0 1019391
20:00+14в237943 0.0 1019408